Location: Fours
(44.3167°N, 6.7000°E)
Time: 10:16:15
(UTC+00:00)

Cosmos 2098 - Pass Details

Date: 04 June 2022
Orbit: 387 x 1577 km, 82.9° (Epoch: 30 June)

Event Time Altitude Azimuth Distance (km) Brightness Sun altitude
Rises 02:39:05 0° 342° (NNW) 2,289 8.4 -10.7°
Reaches altitude 10° 02:41:06 10° 332° (NNW) 1,451 7.2 -10.4°
Maximum altitude 02:43:52 33° 266° (W) 742 5.1 -10.1°
Enters shadow 02:46:39 12° 203° (SSW) 1,501 6.5 -9.7°
